Time,TemperatureF,DewpointF,PressureIn,WindDirection,WindDirectionDegrees,WindSpeedMPH,WindSpeedGustMPH,Humidity,HourlyPrecipIn,Conditions,Clouds,dailyrainin,SoftwareType,DateUTC
2013-05-31 00:02:00,74.8,69.3,29.95,SE,135,2.0,2.0,83,0.00,,,0.00,Wunderground v.1.15,2013-05-31 04:02:00,
2013-05-31 00:06:00,74.8,69.3,29.95,SE,134,2.0,2.0,83,0.00,,,0.00,Wunderground v.1.15,2013-05-31 04:06:00,
2013-05-31 00:12:00,74.8,68.9,29.95,SSE,163,2.0,6.0,82,0.00,,,0.00,Wunderground v.1.15,2013-05-31 04:12:00,
2013-05-31 00:14:00,74.8,68.9,29.95,SE,131,3.0,6.0,82,0.00,,,0.00,Wunderground v.1.15,2013-05-31 04:14:00,
2013-05-31 00:20:00,74.9,69.0,29.95,South,175,4.0,4.0,82,0.00,,,0.00,Wunderground v.1.15,2013-05-31 04:20:00,
2013-05-31 00:24:00,74.9,68.7,29.95,SSE,152,4.0,4.0,81,0.00,,,0.00,Wunderground v.1.15,2013-05-31 04:24:00,
2013-05-31 00:26:00,75.0,68.8,29.95,SE,142,4.0,4.0,81,0.00,,,0.00,Wunderground v.1.15,2013-05-31 04:26:00,
2013-05-31 00:32:00,75.1,68.5,29.95,SSW,197,4.0,4.0,80,0.00,,,0.00,Wunderground v.1.15,2013-05-31 04:32:00,
2013-05-31 00:38:00,75.1,68.5,29.96,SSE,166,3.0,4.0,80,0.00,,,0.00,Wunderground v.1.15,2013-05-31 04:38:00,
2013-05-31 00:44:00,75.0,68.4,29.96,SSE,165,3.0,4.0,80,0.00,,,0.00,Wunderground v.1.15,2013-05-31 04:44:00,
2013-05-31 00:50:00,75.0,68.4,29.95,ESE,111,3.0,3.0,80,0.00,,,0.00,Wunderground v.1.15,2013-05-31 04:50:00,
2013-05-31 00:56:00,75.1,68.5,29.95,SE,128,4.0,6.0,80,0.00,,,0.00,Wunderground v.1.15,2013-05-31 04:56:00,
2013-05-31 01:02:00,75.1,68.5,29.95,SSW,198,4.0,6.0,80,0.00,,,0.00,Wunderground v.1.15,2013-05-31 05:02:00,
2013-05-31 01:08:00,75.1,68.5,29.96,SSE,166,3.0,6.0,80,0.00,,,0.00,Wunderground v.1.15,2013-05-31 05:08:00,
2013-05-31 01:14:00,75.1,68.5,29.96,SE,140,2.0,5.0,80,0.00,,,0.00,Wunderground v.1.15,2013-05-31 05:14:00,
2013-05-31 01:20:00,75.1,68.5,29.95,SE,137,3.0,4.0,80,0.00,,,0.00,Wunderground v.1.15,2013-05-31 05:20:00,
2013-05-31 01:26:00,75.1,68.5,29.95,SSE,147,3.0,9.0,80,0.00,,,0.00,Wunderground v.1.15,2013-05-31 05:26:00,
2013-05-31 01:32:00,75.1,68.1,29.95,ESE,106,3.0,8.0,79,0.00,,,0.00,Wunderground v.1.15,2013-05-31 05:32:00,
2013-05-31 01:38:00,75.1,68.1,29.95,South,169,4.0,8.0,79,0.00,,,0.00,Wunderground v.1.15,2013-05-31 05:38:00,
2013-05-31 01:44:00,75.1,68.1,29.95,South,173,4.0,6.0,79,0.00,,,0.00,Wunderground v.1.15,2013-05-31 05:44:00,
2013-05-31 01:50:00,75.1,68.1,29.95,SE,128,4.0,4.0,79,0.00,,,0.00,Wunderground v.1.15,2013-05-31 05:50:00,
2013-05-31 01:56:00,75.1,68.1,29.95,SE,135,3.0,5.0,79,0.00,,,0.00,Wunderground v.1.15,2013-05-31 05:56:00,
2013-05-31 02:02:00,74.9,67.9,29.94,South,179,2.0,3.0,79,0.00,,,0.01,Wunderground v.1.15,2013-05-31 06:02:00,
2013-05-31 02:08:00,74.8,68.2,29.94,SE,131,3.0,3.0,80,0.00,,,0.01,Wunderground v.1.15,2013-05-31 06:08:00,
2013-05-31 02:14:00,74.8,68.2,29.94,SE,137,3.0,3.0,80,0.00,,,0.01,Wunderground v.1.15,2013-05-31 06:14:00,
2013-05-31 02:20:00,74.8,68.2,29.94,SSE,159,3.0,3.0,80,0.00,,,0.01,Wunderground v.1.15,2013-05-31 06:20:00,
2013-05-31 02:26:00,74.8,68.2,29.94,SSE,157,4.0,10.0,80,0.00,,,0.01,Wunderground v.1.15,2013-05-31 06:26:00,
2013-05-31 02:32:00,74.8,68.2,29.93,South,173,3.0,4.0,80,0.00,,,0.01,Wunderground v.1.15,2013-05-31 06:32:00,
2013-05-31 02:38:00,74.7,68.1,29.93,South,176,2.0,7.0,80,0.00,,,0.01,Wunderground v.1.15,2013-05-31 06:38:00,
2013-05-31 02:44:00,74.6,68.0,29.92,SE,146,3.0,4.0,80,0.00,,,0.01,Wunderground v.1.15,2013-05-31 06:44:00,
2013-05-31 02:50:00,74.5,67.9,29.92,SE,134,3.0,3.0,80,0.00,,,0.01,Wunderground v.1.15,2013-05-31 06:50:00,
2013-05-31 02:56:00,74.4,67.8,29.92,SE,146,3.0,5.0,80,0.00,,,0.01,Wunderground v.1.15,2013-05-31 06:56:00,
2013-05-31 03:02:00,74.3,67.7,29.92,SSE,166,4.0,4.0,80,0.00,,,0.01,Wunderground v.1.15,2013-05-31 07:02:00,
2013-05-31 03:08:00,74.3,67.7,29.92,SE,142,4.0,4.0,80,0.00,,,0.01,Wunderground v.1.15,2013-05-31 07:08:00,
2013-05-31 03:14:00,74.2,67.6,29.91,SSE,160,3.0,6.0,80,0.00,,,0.01,Wunderground v.1.15,2013-05-31 07:14:00,
2013-05-31 03:20:00,74.2,67.6,29.92,SE,146,3.0,4.0,80,0.00,,,0.01,Wunderground v.1.15,2013-05-31 07:20:00,
2013-05-31 03:26:00,74.2,67.6,29.92,South,173,3.0,4.0,80,0.00,,,0.01,Wunderground v.1.15,2013-05-31 07:26:00,
2013-05-31 03:32:00,74.2,67.6,29.92,South,169,3.0,3.0,80,0.00,,,0.01,Wunderground v.1.15,2013-05-31 07:32:00,
2013-05-31 03:38:00,74.1,67.5,29.92,SSE,157,1.0,3.0,80,0.00,,,0.01,Wunderground v.1.15,2013-05-31 07:38:00,
2013-05-31 03:44:00,74.1,67.5,29.92,South,190,2.0,3.0,80,0.00,,,0.01,Wunderground v.1.15,2013-05-31 07:44:00,
2013-05-31 03:50:00,74.2,67.6,29.91,East,98,3.0,3.0,80,0.00,,,0.01,Wunderground v.1.15,2013-05-31 07:50:00,
2013-05-31 03:56:00,74.3,67.7,29.91,SSE,158,4.0,4.0,80,0.00,,,0.01,Wunderground v.1.15,2013-05-31 07:56:00,
2013-05-31 04:02:00,74.3,67.7,29.92,SE,136,3.0,9.0,80,0.00,,,0.01,Wunderground v.1.15,2013-05-31 08:02:00,
2013-05-31 04:08:00,74.4,67.8,29.91,South,181,4.0,9.0,80,0.00,,,0.01,Wunderground v.1.15,2013-05-31 08:08:00,
2013-05-31 04:14:00,74.4,67.8,29.92,SE,138,4.0,4.0,80,0.00,,,0.01,Wunderground v.1.15,2013-05-31 08:14:00,
2013-05-31 04:20:00,74.4,67.5,29.92,South,175,5.0,5.0,79,0.00,,,0.01,Wunderground v.1.15,2013-05-31 08:20:00,
2013-05-31 04:26:00,74.5,67.6,29.91,ESE,121,5.0,5.0,79,0.00,,,0.01,Wunderground v.1.15,2013-05-31 08:26:00,
2013-05-31 04:32:00,74.5,67.6,29.91,SE,140,4.0,4.0,79,0.00,,,0.01,Wunderground v.1.15,2013-05-31 08:32:00,
2013-05-31 04:38:00,74.4,67.5,29.92,SE,146,3.0,4.0,79,0.00,,,0.01,Wunderground v.1.15,2013-05-31 08:38:00,
2013-05-31 04:44:00,74.4,67.5,29.91,WSW,243,4.0,9.0,79,0.00,,,0.01,Wunderground v.1.15,2013-05-31 08:44:00,
2013-05-31 04:50:00,74.4,67.5,29.91,South,170,4.0,4.0,79,0.00,,,0.01,Wunderground v.1.15,2013-05-31 08:50:00,
2013-05-31 04:56:00,74.4,67.5,29.91,SSW,213,4.0,5.0,79,0.00,,,0.01,Wunderground v.1.15,2013-05-31 08:56:00,
2013-05-31 05:02:00,74.4,67.5,29.91,SE,133,4.0,8.0,79,0.00,,,0.01,Wunderground v.1.15,2013-05-31 09:02:00,
2013-05-31 05:08:00,74.4,67.5,29.91,SSE,150,5.0,8.0,79,0.00,,,0.01,Wunderground v.1.15,2013-05-31 09:08:00,
2013-05-31 05:14:00,74.3,67.4,29.91,SE,132,4.0,5.0,79,0.00,,,0.01,Wunderground v.1.15,2013-05-31 09:14:00,
2013-05-31 05:20:00,74.3,67.4,29.91,SE,142,4.0,5.0,79,0.00,,,0.01,Wunderground v.1.15,2013-05-31 09:20:00,
2013-05-31 05:26:00,74.4,67.5,29.91,SSE,148,5.0,10.0,79,0.00,,,0.01,Wunderground v.1.15,2013-05-31 09:26:00,
2013-05-31 05:32:00,74.4,67.5,29.91,SSE,153,5.0,7.0,79,0.00,,,0.01,Wunderground v.1.15,2013-05-31 09:32:00,
2013-05-31 05:38:00,74.4,67.5,29.91,SSW,207,4.0,7.0,79,0.00,,,0.01,Wunderground v.1.15,2013-05-31 09:38:00,
2013-05-31 05:44:00,74.4,67.5,29.91,South,169,4.0,10.0,79,0.00,,,0.01,Wunderground v.1.15,2013-05-31 09:44:00,
2013-05-31 05:50:00,74.4,67.5,29.91,SE,134,5.0,5.0,79,0.00,,,0.01,Wunderground v.1.15,2013-05-31 09:50:00,
2013-05-31 05:56:00,74.4,67.5,29.91,SSE,158,6.0,16.0,79,0.00,,,0.01,Wunderground v.1.15,2013-05-31 09:56:00,
2013-05-31 06:02:00,74.4,67.5,29.91,ESE,119,6.0,7.0,79,0.00,,,0.01,Wunderground v.1.15,2013-05-31 10:02:00,
2013-05-31 06:08:00,74.4,67.5,29.91,SE,134,5.0,7.0,79,0.00,,,0.01,Wunderground v.1.15,2013-05-31 10:08:00,
2013-05-31 06:14:00,74.3,67.4,29.91,SSE,156,4.0,8.0,79,0.00,,,0.01,Wunderground v.1.15,2013-05-31 10:14:00,
2013-05-31 06:20:00,74.3,67.4,29.92,SW,234,5.0,5.0,79,0.00,,,0.01,Wunderground v.1.15,2013-05-31 10:20:00,
2013-05-31 06:26:00,74.3,67.4,29.92,SSE,153,5.0,5.0,79,0.00,,,0.01,Wunderground v.1.15,2013-05-31 10:26:00,
2013-05-31 06:32:00,74.0,67.4,29.92,SSE,150,5.0,6.0,80,0.00,,,0.01,Wunderground v.1.15,2013-05-31 10:32:00,
2013-05-31 06:38:00,73.7,67.9,29.92,SSW,201,4.0,7.0,82,0.00,,,0.01,Wunderground v.1.15,2013-05-31 10:38:00,
2013-05-31 06:44:00,73.3,67.5,29.92,SSW,196,3.0,5.0,82,0.00,,,0.01,Wunderground v.1.15,2013-05-31 10:44:00,
2013-05-31 06:50:00,73.2,67.4,29.92,WSW,254,3.0,4.0,82,0.00,,,0.01,Wunderground v.1.15,2013-05-31 10:50:00,
2013-05-31 06:56:00,73.1,67.6,29.92,South,186,2.0,4.0,83,0.00,,,0.01,Wunderground v.1.15,2013-05-31 10:56:00,
2013-05-31 07:02:00,73.0,67.5,29.95,WSW,251,3.0,18.0,83,0.00,,,0.01,Wunderground v.1.15,2013-05-31 11:02:00,
2013-05-31 07:08:00,72.1,67.0,29.96,SW,236,6.0,18.0,84,0.00,,,0.01,Wunderground v.1.15,2013-05-31 11:08:00,
2013-05-31 07:14:00,70.8,66.4,29.95,WSW,257,7.0,7.0,86,0.00,,,0.01,Wunderground v.1.15,2013-05-31 11:14:00,
2013-05-31 07:20:00,69.9,66.5,29.96,SSW,213,5.0,7.0,89,0.46,,,0.04,Wunderground v.1.15,2013-05-31 11:20:00,
2013-05-31 07:26:00,68.9,65.8,29.97,WNW,299,3.0,7.0,90,0.64,,,0.08,Wunderground v.1.15,2013-05-31 11:26:00,
2013-05-31 07:32:00,67.3,63.9,29.97,NNW,330,3.0,3.0,89,0.44,,,0.12,Wunderground v.1.15,2013-05-31 11:32:00,
2013-05-31 07:38:00,66.3,63.6,29.96,NNW,329,1.0,3.0,91,0.40,,,0.17,Wunderground v.1.15,2013-05-31 11:38:00,
2013-05-31 07:44:00,65.8,63.4,29.96,NNW,330,1.0,4.0,92,0.58,,,0.22,Wunderground v.1.15,2013-05-31 11:44:00,
2013-05-31 07:50:00,65.4,63.3,29.96,NW,309,1.0,2.0,93,0.44,,,0.27,Wunderground v.1.15,2013-05-31 11:50:00,
2013-05-31 07:56:00,65.1,63.0,29.96,NW,317,1.0,2.0,93,0.56,,,0.32,Wunderground v.1.15,2013-05-31 11:56:00,
2013-05-31 08:02:00,64.9,63.1,29.95,NW,315,0.0,0.0,94,0.50,,,0.36,Wunderground v.1.15,2013-05-31 12:02:00,
2013-05-31 08:08:00,64.8,63.0,29.95,NW,319,0.0,3.0,94,0.39,,,0.40,Wunderground v.1.15,2013-05-31 12:08:00,
2013-05-31 08:14:00,64.7,62.9,29.95,SE,130,2.0,3.0,94,0.42,,,0.44,Wunderground v.1.15,2013-05-31 12:14:00,
2013-05-31 08:20:00,64.7,63.2,29.96,SE,130,1.0,1.0,95,0.44,,,0.48,Wunderground v.1.15,2013-05-31 12:20:00,
2013-05-31 08:26:00,64.7,63.2,29.95,SE,129,0.0,1.0,95,0.46,,,0.52,Wunderground v.1.15,2013-05-31 12:26:00,
2013-05-31 08:32:00,64.7,63.2,29.96,SE,129,0.0,1.0,95,0.30,,,0.55,Wunderground v.1.15,2013-05-31 12:32:00,
2013-05-31 08:38:00,64.8,63.3,29.95,SE,129,0.0,2.0,95,0.26,,,0.58,Wunderground v.1.15,2013-05-31 12:38:00,
2013-05-31 08:44:00,65.0,63.8,29.96,SE,129,1.0,2.0,96,0.24,,,0.61,Wunderground v.1.15,2013-05-31 12:44:00,
2013-05-31 08:50:00,65.0,63.8,29.97,SSE,159,1.0,1.0,96,0.32,,,0.64,Wunderground v.1.15,2013-05-31 12:50:00,
2013-05-31 08:56:00,65.0,63.8,29.97,SSE,161,1.0,1.0,96,0.22,,,0.67,Wunderground v.1.15,2013-05-31 12:56:00,
2013-05-31 09:02:00,64.9,63.4,29.96,SSE,166,0.0,0.0,95,0.21,,,0.69,Wunderground v.1.15,2013-05-31 13:02:00,
2013-05-31 09:08:00,64.8,63.6,29.97,SSE,166,0.0,0.0,96,0.31,,,0.72,Wunderground v.1.15,2013-05-31 13:08:00,
2013-05-31 09:14:00,65.0,63.8,29.96,SSE,163,0.0,0.0,96,0.30,,,0.74,Wunderground v.1.15,2013-05-31 13:14:00,
2013-05-31 09:20:00,65.4,64.2,29.96,SSE,163,0.0,0.0,96,0.20,,,0.76,Wunderground v.1.15,2013-05-31 13:20:00,
2013-05-31 09:26:00,65.7,64.5,29.96,SSE,163,0.0,0.0,96,0.15,,,0.77,Wunderground v.1.15,2013-05-31 13:26:00,
2013-05-31 09:32:00,65.9,65.0,29.96,SSE,163,0.0,2.0,97,0.14,,,0.79,Wunderground v.1.15,2013-05-31 13:32:00,
2013-05-31 09:38:00,66.0,64.8,29.95,SSE,163,1.0,2.0,96,0.14,,,0.80,Wunderground v.1.15,2013-05-31 13:38:00,
2013-05-31 09:44:00,66.1,64.9,29.96,SSE,163,0.0,2.0,96,0.17,,,0.82,Wunderground v.1.15,2013-05-31 13:44:00,
2013-05-31 09:50:00,66.3,65.1,29.96,ESE,103,1.0,2.0,96,0.13,,,0.83,Wunderground v.1.15,2013-05-31 13:50:00,
2013-05-31 09:56:00,66.5,65.6,29.95,ESE,103,2.0,4.0,97,0.12,,,0.85,Wunderground v.1.15,2013-05-31 13:56:00,
2013-05-31 10:02:00,66.9,66.0,29.95,ESE,112,3.0,4.0,97,0.15,,,0.86,Wunderground v.1.15,2013-05-31 14:02:00,
2013-05-31 10:08:00,67.5,66.6,29.95,SSE,153,3.0,5.0,97,0.12,,,0.87,Wunderground v.1.15,2013-05-31 14:08:00,
2013-05-31 10:14:00,68.0,67.1,29.94,SSE,161,4.0,4.0,97,0.11,,,0.88,Wunderground v.1.15,2013-05-31 14:14:00,
2013-05-31 10:20:00,68.3,67.4,29.94,SE,130,4.0,4.0,97,0.12,,,0.90,Wunderground v.1.15,2013-05-31 14:20:00,
2013-05-31 10:26:00,68.6,67.7,29.94,SE,145,4.0,7.0,97,0.09,,,0.90,Wunderground v.1.15,2013-05-31 14:26:00,
2013-05-31 10:32:00,68.9,68.0,29.94,South,175,4.0,6.0,97,0.07,,,0.91,Wunderground v.1.15,2013-05-31 14:32:00,
2013-05-31 10:38:00,69.0,68.1,29.94,SE,139,4.0,6.0,97,0.09,,,0.92,Wunderground v.1.15,2013-05-31 14:38:00,
2013-05-31 10:44:00,69.1,68.2,29.93,SE,140,5.0,6.0,97,0.06,,,0.92,Wunderground v.1.15,2013-05-31 14:44:00,
2013-05-31 10:50:00,69.4,68.5,29.93,SSE,148,5.0,5.0,97,0.05,,,0.93,Wunderground v.1.15,2013-05-31 14:50:00,
2013-05-31 10:56:00,69.7,68.8,29.93,SSW,192,5.0,7.0,97,0.06,,,0.94,Wunderground v.1.15,2013-05-31 14:56:00,
2013-05-31 11:02:00,69.8,68.9,29.92,SE,129,5.0,7.0,97,0.06,,,0.94,Wunderground v.1.15,2013-05-31 15:02:00,
2013-05-31 11:08:00,69.9,69.0,29.92,ENE,68,4.0,7.0,97,0.05,,,0.94,Wunderground v.1.15,2013-05-31 15:08:00,
2013-05-31 11:14:00,69.8,68.6,29.92,SE,139,5.0,8.0,96,0.00,,,0.94,Wunderground v.1.15,2013-05-31 15:14:00,
2013-05-31 11:20:00,69.7,68.5,29.92,SE,129,5.0,5.0,96,0.00,,,0.94,Wunderground v.1.15,2013-05-31 15:20:00,
2013-05-31 11:26:00,69.7,68.5,29.91,SE,146,4.0,5.0,96,0.00,,,0.94,Wunderground v.1.15,2013-05-31 15:26:00,
2013-05-31 11:32:00,69.7,68.5,29.91,SSE,148,5.0,7.0,96,0.00,,,0.94,Wunderground v.1.15,2013-05-31 15:32:00,
2013-05-31 11:38:00,69.7,68.5,29.91,East,92,5.0,7.0,96,0.00,,,0.94,Wunderground v.1.15,2013-05-31 15:38:00,
2013-05-31 11:44:00,69.7,68.5,29.92,SE,137,4.0,5.0,96,0.00,,,0.94,Wunderground v.1.15,2013-05-31 15:44:00,
2013-05-31 11:50:00,69.8,68.3,29.92,SE,142,5.0,5.0,95,0.00,,,0.94,Wunderground v.1.15,2013-05-31 15:50:00,
2013-05-31 11:56:00,69.8,68.3,29.94,SW,225,6.0,8.0,95,0.00,,,0.94,Wunderground v.1.15,2013-05-31 15:56:00,
2013-05-31 12:02:00,69.9,68.4,29.95,SSE,164,5.0,5.0,95,0.00,,,0.94,Wunderground v.1.15,2013-05-31 16:02:00,
2013-05-31 12:08:00,69.9,68.1,29.95,SSW,192,4.0,5.0,94,0.00,,,0.94,Wunderground v.1.15,2013-05-31 16:08:00,
2013-05-31 12:14:00,70.1,68.3,29.95,SSE,158,3.0,4.0,94,0.00,,,0.94,Wunderground v.1.15,2013-05-31 16:14:00,
2013-05-31 12:20:00,70.1,68.3,29.95,SSE,157,3.0,3.0,94,0.00,,,0.94,Wunderground v.1.15,2013-05-31 16:20:00,
2013-05-31 12:26:00,70.1,68.3,29.95,SW,231,3.0,8.0,94,0.00,,,0.94,Wunderground v.1.15,2013-05-31 16:26:00,
2013-05-31 12:32:00,70.2,68.4,29.95,SSE,152,4.0,4.0,94,0.00,,,0.94,Wunderground v.1.15,2013-05-31 16:32:00,
2013-05-31 12:38:00,70.2,68.4,29.95,SW,223,3.0,6.0,94,0.00,,,0.94,Wunderground v.1.15,2013-05-31 16:38:00,
2013-05-31 12:44:00,70.3,68.5,29.95,South,190,3.0,3.0,94,0.00,,,0.94,Wunderground v.1.15,2013-05-31 16:44:00,
2013-05-31 12:50:00,70.5,68.7,29.95,SSW,208,4.0,9.0,94,0.00,,,0.94,Wunderground v.1.15,2013-05-31 16:50:00,
2013-05-31 12:56:00,70.8,69.0,29.94,SSE,160,4.0,9.0,94,0.00,,,0.94,Wunderground v.1.15,2013-05-31 16:56:00,
2013-05-31 13:02:00,71.1,69.0,29.95,SSW,199,4.0,7.0,93,0.00,,,0.94,Wunderground v.1.15,2013-05-31 17:02:00,
2013-05-31 13:08:00,71.3,69.2,29.94,SW,220,4.0,7.0,93,0.00,,,0.94,Wunderground v.1.15,2013-05-31 17:08:00,
2013-05-31 13:14:00,71.5,69.1,29.94,SSW,208,4.0,6.0,92,0.00,,,0.94,Wunderground v.1.15,2013-05-31 17:14:00,
2013-05-31 13:20:00,71.5,69.1,29.94,SSW,212,4.0,4.0,92,0.00,,,0.94,Wunderground v.1.15,2013-05-31 17:20:00,
2013-05-31 13:26:00,71.5,69.1,29.93,SSE,168,2.0,4.0,92,0.00,,,0.94,Wunderground v.1.15,2013-05-31 17:26:00,
2013-05-31 13:32:00,71.5,69.1,29.94,West,259,2.0,4.0,92,0.00,,,0.94,Wunderground v.1.15,2013-05-31 17:32:00,
2013-05-31 13:38:00,71.6,69.2,29.92,South,182,3.0,5.0,92,0.00,,,0.94,Wunderground v.1.15,2013-05-31 17:38:00,
2013-05-31 13:44:00,71.6,68.8,29.92,South,180,3.0,6.0,91,0.00,,,0.94,Wunderground v.1.15,2013-05-31 17:44:00,
2013-05-31 13:50:00,71.4,68.6,29.92,SW,214,4.0,5.0,91,0.00,,,0.95,Wunderground v.1.15,2013-05-31 17:50:00,
2013-05-31 13:56:00,71.2,68.4,29.92,SE,128,2.0,5.0,91,0.00,,,0.95,Wunderground v.1.15,2013-05-31 17:56:00,
2013-05-31 14:02:00,70.8,68.4,29.92,South,186,2.0,3.0,92,0.06,,,0.96,Wunderground v.1.15,2013-05-31 18:02:00,
2013-05-31 14:08:00,70.6,68.5,29.92,South,171,2.0,3.0,93,0.06,,,0.96,Wunderground v.1.15,2013-05-31 18:08:00,
2013-05-31 14:14:00,70.4,68.3,29.92,South,191,2.0,4.0,93,0.05,,,0.97,Wunderground v.1.15,2013-05-31 18:14:00,
2013-05-31 14:20:00,70.4,68.3,29.92,South,180,2.0,2.0,93,0.07,,,0.98,Wunderground v.1.15,2013-05-31 18:20:00,
2013-05-31 14:26:00,70.4,68.6,29.92,SSW,200,0.0,2.0,94,0.07,,,0.98,Wunderground v.1.15,2013-05-31 18:26:00,
2013-05-31 14:32:00,70.4,68.6,29.92,SSW,202,1.0,1.0,94,0.05,,,0.98,Wunderground v.1.15,2013-05-31 18:32:00,
2013-05-31 14:38:00,70.6,69.1,29.92,South,187,0.0,2.0,95,0.04,,,0.99,Wunderground v.1.15,2013-05-31 18:38:00,
2013-05-31 14:44:00,70.9,69.4,29.91,South,188,0.0,2.0,95,0.06,,,1.00,Wunderground v.1.15,2013-05-31 18:44:00,
2013-05-31 14:50:00,71.3,70.1,29.92,NNE,27,0.0,0.0,96,0.06,,,1.00,Wunderground v.1.15,2013-05-31 18:50:00,
2013-05-31 14:56:00,71.6,70.1,29.92,SSE,167,1.0,1.0,95,0.05,,,1.00,Wunderground v.1.15,2013-05-31 18:56:00,
2013-05-31 15:02:00,71.8,70.3,29.92,SE,140,1.0,1.0,95,0.00,,,1.00,Wunderground v.1.15,2013-05-31 19:02:00,
2013-05-31 15:08:00,72.0,70.5,29.92,SW,230,2.0,6.0,95,0.00,,,1.00,Wunderground v.1.15,2013-05-31 19:08:00,
2013-05-31 15:14:00,72.2,70.7,29.92,SW,232,2.0,5.0,95,0.00,,,1.00,Wunderground v.1.15,2013-05-31 19:14:00,
2013-05-31 15:20:00,72.6,71.1,29.92,SW,215,2.0,5.0,95,0.00,,,1.00,Wunderground v.1.15,2013-05-31 19:20:00,
2013-05-31 15:26:00,72.8,71.0,29.92,SW,229,4.0,6.0,94,0.00,,,1.00,Wunderground v.1.15,2013-05-31 19:26:00,
2013-05-31 15:32:00,73.2,71.1,29.92,SW,222,4.0,5.0,93,0.00,,,1.00,Wunderground v.1.15,2013-05-31 19:32:00,
2013-05-31 15:38:00,73.5,71.4,29.91,SSW,200,3.0,5.0,93,0.00,,,1.00,Wunderground v.1.15,2013-05-31 19:38:00,
2013-05-31 15:44:00,73.3,70.8,29.92,SSW,196,4.0,4.0,92,0.00,,,1.00,Wunderground v.1.15,2013-05-31 19:44:00,
2013-05-31 15:50:00,73.2,70.7,29.92,SSW,199,3.0,7.0,92,0.00,,,1.00,Wunderground v.1.15,2013-05-31 19:50:00,
2013-05-31 15:56:00,73.2,70.4,29.92,SW,234,4.0,7.0,91,0.00,,,1.00,Wunderground v.1.15,2013-05-31 19:56:00,
2013-05-31 16:02:00,73.5,71.4,29.92,South,171,3.0,3.0,93,0.00,,,1.00,Wunderground v.1.15,2013-05-31 20:02:00,
2013-05-31 16:08:00,74.2,71.4,29.91,SSW,205,3.0,7.0,91,0.00,,,1.00,Wunderground v.1.15,2013-05-31 20:08:00,
2013-05-31 16:14:00,74.3,71.2,29.91,South,180,6.0,12.0,90,0.00,,,1.00,Wunderground v.1.15,2013-05-31 20:14:00,
2013-05-31 16:20:00,74.4,71.3,29.91,SW,236,4.0,4.0,90,0.00,,,1.00,Wunderground v.1.15,2013-05-31 20:20:00,
2013-05-31 16:26:00,74.7,71.2,29.91,SSW,212,2.0,6.0,89,0.00,,,1.00,Wunderground v.1.15,2013-05-31 20:26:00,
2013-05-31 16:32:00,74.9,71.4,29.91,SSW,205,3.0,4.0,89,0.00,,,1.00,Wunderground v.1.15,2013-05-31 20:32:00,
2013-05-31 16:38:00,75.1,71.0,29.91,WSW,240,4.0,6.0,87,0.00,,,1.00,Wunderground v.1.15,2013-05-31 20:38:00,
2013-05-31 16:44:00,75.2,71.1,29.91,SW,218,5.0,5.0,87,0.00,,,1.00,Wunderground v.1.15,2013-05-31 20:44:00,
2013-05-31 16:50:00,75.5,71.0,29.90,SW,232,4.0,4.0,86,0.00,,,1.00,Wunderground v.1.15,2013-05-31 20:50:00,
2013-05-31 16:56:00,76.1,71.6,29.90,SSW,211,4.0,6.0,86,0.00,,,1.00,Wunderground v.1.15,2013-05-31 20:56:00,
2013-05-31 17:02:00,76.7,71.8,29.90,SW,217,5.0,6.0,85,0.00,,,1.00,Wunderground v.1.15,2013-05-31 21:02:00,
2013-05-31 17:08:00,77.0,71.8,29.89,WSW,248,5.0,13.0,84,0.00,,,1.00,Wunderground v.1.15,2013-05-31 21:08:00,
2013-05-31 17:14:00,77.4,72.2,29.89,South,171,5.0,10.0,84,0.00,,,1.00,Wunderground v.1.15,2013-05-31 21:14:00,
2013-05-31 17:20:00,77.7,72.1,29.89,SE,140,4.0,5.0,83,0.00,,,1.00,Wunderground v.1.15,2013-05-31 21:20:00,
2013-05-31 17:26:00,77.6,71.3,29.89,SSW,192,7.0,9.0,81,0.00,,,1.00,Wunderground v.1.15,2013-05-31 21:26:00,
2013-05-31 17:32:00,77.6,70.9,29.89,SW,219,7.0,8.0,80,0.00,,,1.00,Wunderground v.1.15,2013-05-31 21:32:00,
2013-05-31 17:38:00,77.7,71.0,29.89,SW,224,5.0,8.0,80,0.00,,,1.00,Wunderground v.1.15,2013-05-31 21:38:00,
2013-05-31 17:44:00,77.6,71.7,29.89,SW,219,5.0,5.0,82,0.00,,,1.00,Wunderground v.1.15,2013-05-31 21:44:00,
2013-05-31 17:50:00,77.8,71.9,29.88,SE,142,5.0,8.0,82,0.00,,,1.00,Wunderground v.1.15,2013-05-31 21:50:00,
2013-05-31 17:56:00,77.7,71.8,29.88,ESE,109,5.0,8.0,82,0.00,,,1.00,Wunderground v.1.15,2013-05-31 21:56:00,
2013-05-31 18:02:00,77.6,71.7,29.88,SSW,192,5.0,5.0,82,0.00,,,1.00,Wunderground v.1.15,2013-05-31 22:02:00,
2013-05-31 18:08:00,77.8,71.5,29.88,SSE,150,5.0,10.0,81,0.00,,,1.00,Wunderground v.1.15,2013-05-31 22:08:00,
2013-05-31 18:14:00,77.8,71.5,29.87,SW,220,6.0,6.0,81,0.00,,,1.00,Wunderground v.1.15,2013-05-31 22:14:00,
2013-05-31 18:20:00,78.3,72.0,29.87,SW,216,4.0,9.0,81,0.00,,,1.00,Wunderground v.1.15,2013-05-31 22:20:00,
2013-05-31 18:26:00,78.2,71.9,29.87,ESE,118,4.0,9.0,81,0.00,,,1.00,Wunderground v.1.15,2013-05-31 22:26:00,
2013-05-31 18:32:00,77.9,71.6,29.87,SSE,156,6.0,7.0,81,0.00,,,1.00,Wunderground v.1.15,2013-05-31 22:32:00,
2013-05-31 18:38:00,77.7,71.4,29.87,SSE,157,7.0,7.0,81,0.00,,,1.00,Wunderground v.1.15,2013-05-31 22:38:00,
2013-05-31 18:44:00,77.4,71.1,29.87,SSE,167,6.0,7.0,81,0.00,,,1.00,Wunderground v.1.15,2013-05-31 22:44:00,
2013-05-31 18:50:00,77.1,71.2,29.87,SW,215,6.0,6.0,82,0.00,,,1.00,Wunderground v.1.15,2013-05-31 22:50:00,
2013-05-31 18:56:00,76.8,70.9,29.87,SE,134,5.0,7.0,82,0.00,,,1.00,Wunderground v.1.15,2013-05-31 22:56:00,
2013-05-31 19:02:00,76.6,71.0,29.87,South,180,6.0,6.0,83,0.00,,,1.00,Wunderground v.1.15,2013-05-31 23:02:00,
2013-05-31 19:08:00,76.4,70.9,29.87,SE,141,5.0,9.0,83,0.00,,,1.00,Wunderground v.1.15,2013-05-31 23:08:00,
2013-05-31 19:14:00,76.4,70.9,29.87,SSE,161,5.0,7.0,83,0.00,,,1.00,Wunderground v.1.15,2013-05-31 23:14:00,
2013-05-31 19:20:00,76.4,71.2,29.88,SW,229,5.0,6.0,84,0.00,,,1.00,Wunderground v.1.15,2013-05-31 23:20:00,
2013-05-31 19:26:00,76.3,71.1,29.87,SSW,213,5.0,6.0,84,0.00,,,1.00,Wunderground v.1.15,2013-05-31 23:26:00,
2013-05-31 19:32:00,76.1,70.9,29.87,South,185,5.0,5.0,84,0.00,,,1.00,Wunderground v.1.15,2013-05-31 23:32:00,
2013-05-31 19:38:00,76.0,71.2,29.87,WSW,242,4.0,9.0,85,0.00,,,1.00,Wunderground v.1.15,2013-05-31 23:38:00,
2013-05-31 19:44:00,75.9,71.1,29.87,SSE,168,3.0,4.0,85,0.00,,,1.00,Wunderground v.1.15,2013-05-31 23:44:00,
2013-05-31 19:50:00,75.7,71.2,29.87,SSE,168,2.0,4.0,86,0.00,,,1.00,Wunderground v.1.15,2013-05-31 23:50:00,
2013-05-31 19:56:00,75.6,71.1,29.87,SSE,164,2.0,4.0,86,0.00,,,1.00,Wunderground v.1.15,2013-05-31 23:56:00,
2013-05-31 20:02:00,75.5,71.4,29.87,SSE,159,2.0,2.0,87,0.00,,,1.00,Wunderground v.1.15,2013-06-01 00:02:00,
2013-05-31 20:08:00,75.3,71.2,29.87,SSE,161,3.0,5.0,87,0.00,,,1.00,Wunderground v.1.15,2013-06-01 00:08:00,
2013-05-31 20:14:00,75.2,71.1,29.87,SW,222,3.0,5.0,87,0.00,,,1.00,Wunderground v.1.15,2013-06-01 00:14:00,
2013-05-31 20:20:00,75.1,71.0,29.86,SSE,147,3.0,3.0,87,0.00,,,1.00,Wunderground v.1.15,2013-06-01 00:20:00,
2013-05-31 20:26:00,75.0,71.2,29.87,WSW,240,3.0,4.0,88,0.00,,,1.00,Wunderground v.1.15,2013-06-01 00:26:00,
2013-05-31 20:32:00,74.9,71.1,29.87,SSE,152,2.0,3.0,88,0.00,,,1.00,Wunderground v.1.15,2013-06-01 00:32:00,
2013-05-31 20:38:00,74.9,71.1,29.87,South,169,2.0,3.0,88,0.00,,,1.00,Wunderground v.1.15,2013-06-01 00:38:00,
2013-05-31 20:44:00,74.8,71.0,29.87,SSE,147,2.0,2.0,88,0.00,,,1.00,Wunderground v.1.15,2013-06-01 00:44:00,
2013-05-31 20:50:00,74.7,70.9,29.86,South,189,3.0,5.0,88,0.00,,,1.00,Wunderground v.1.15,2013-06-01 00:50:00,
2013-05-31 20:56:00,74.6,71.1,29.86,SSW,202,4.0,6.0,89,0.00,,,1.00,Wunderground v.1.15,2013-06-01 00:56:00,
2013-05-31 21:02:00,74.6,71.1,29.86,South,188,3.0,4.0,89,0.00,,,1.00,Wunderground v.1.15,2013-06-01 01:02:00,
2013-05-31 21:08:00,74.4,70.9,29.85,SSE,167,3.0,4.0,89,0.00,,,1.00,Wunderground v.1.15,2013-06-01 01:08:00,
2013-05-31 21:14:00,74.3,71.2,29.84,SE,140,3.0,3.0,90,0.00,,,1.00,Wunderground v.1.15,2013-06-01 01:14:00,
2013-05-31 21:20:00,74.3,71.2,29.84,SE,128,4.0,4.0,90,0.00,,,1.00,Wunderground v.1.15,2013-06-01 01:20:00,
2013-05-31 21:26:00,74.3,71.2,29.84,SSE,156,4.0,6.0,90,0.00,,,1.00,Wunderground v.1.15,2013-06-01 01:26:00,
2013-05-31 21:32:00,74.3,71.2,29.84,ESE,107,4.0,5.0,90,0.00,,,1.00,Wunderground v.1.15,2013-06-01 01:32:00,
2013-05-31 21:38:00,74.2,71.1,29.84,SE,128,4.0,7.0,90,0.00,,,1.00,Wunderground v.1.15,2013-06-01 01:38:00,
2013-05-31 21:44:00,74.2,71.4,29.85,SE,132,3.0,4.0,91,0.00,,,1.00,Wunderground v.1.15,2013-06-01 01:44:00,
2013-05-31 21:50:00,74.2,71.4,29.85,SE,125,3.0,4.0,91,0.00,,,1.00,Wunderground v.1.15,2013-06-01 01:50:00,
2013-05-31 21:56:00,74.2,71.4,29.86,SSE,166,4.0,4.0,91,0.00,,,1.00,Wunderground v.1.15,2013-06-01 01:56:00,
2013-05-31 22:02:00,74.3,71.5,29.86,South,177,3.0,3.0,91,0.00,,,1.00,Wunderground v.1.15,2013-06-01 02:02:00,
2013-05-31 22:08:00,74.3,71.5,29.86,SE,126,3.0,6.0,91,0.00,,,1.00,Wunderground v.1.15,2013-06-01 02:08:00,
2013-05-31 22:14:00,74.3,71.5,29.86,South,172,3.0,5.0,91,0.00,,,1.00,Wunderground v.1.15,2013-06-01 02:14:00,
2013-05-31 22:20:00,74.3,71.5,29.86,ESE,109,2.0,3.0,91,0.00,,,1.00,Wunderground v.1.15,2013-06-01 02:20:00,
2013-05-31 22:26:00,74.3,71.5,29.86,SSE,147,2.0,3.0,91,0.00,,,1.00,Wunderground v.1.15,2013-06-01 02:26:00,
2013-05-31 22:32:00,74.3,71.5,29.87,ESE,107,2.0,4.0,91,0.00,,,1.00,Wunderground v.1.15,2013-06-01 02:32:00,
2013-05-31 22:38:00,74.3,71.2,29.87,ESE,122,2.0,4.0,90,0.00,,,1.00,Wunderground v.1.15,2013-06-01 02:38:00,
2013-05-31 22:44:00,74.4,71.3,29.87,SE,134,3.0,5.0,90,0.00,,,1.00,Wunderground v.1.15,2013-06-01 02:44:00,
2013-05-31 22:50:00,74.4,71.3,29.87,SE,134,2.0,3.0,90,0.00,,,1.00,Wunderground v.1.15,2013-06-01 02:50:00,
2013-05-31 22:56:00,74.4,71.3,29.87,SSE,153,2.0,3.0,90,0.00,,,1.00,Wunderground v.1.15,2013-06-01 02:56:00,
2013-05-31 23:02:00,74.4,70.9,29.87,SSE,157,2.0,4.0,89,0.00,,,1.00,Wunderground v.1.15,2013-06-01 03:02:00,
2013-05-31 23:08:00,74.5,71.0,29.86,SE,145,3.0,4.0,89,0.00,,,1.00,Wunderground v.1.15,2013-06-01 03:08:00,
2013-05-31 23:14:00,74.5,71.0,29.88,SSE,157,2.0,4.0,89,0.00,,,1.00,Wunderground v.1.15,2013-06-01 03:14:00,
2013-05-31 23:20:00,74.5,71.0,29.88,SSE,158,3.0,3.0,89,0.00,,,1.00,Wunderground v.1.15,2013-06-01 03:20:00,
2013-05-31 23:26:00,74.4,70.9,29.87,South,182,3.0,5.0,89,0.00,,,1.00,Wunderground v.1.15,2013-06-01 03:26:00,
2013-05-31 23:32:00,74.4,70.9,29.87,South,174,3.0,3.0,89,0.00,,,1.00,Wunderground v.1.15,2013-06-01 03:32:00,
2013-05-31 23:38:00,74.4,70.6,29.86,South,175,3.0,5.0,88,0.00,,,1.00,Wunderground v.1.15,2013-06-01 03:38:00,
2013-05-31 23:44:00,74.5,70.7,29.86,SE,143,4.0,4.0,88,0.00,,,1.00,Wunderground v.1.15,2013-06-01 03:44:00,
2013-05-31 23:50:00,74.4,70.6,29.87,SSE,152,3.0,7.0,88,0.00,,,1.00,Wunderground v.1.15,2013-06-01 03:50:00,
2013-05-31 23:56:00,74.4,70.6,29.88,SE,143,4.0,7.0,88,0.00,,,1.00,Wunderground v.1.15,2013-06-01 03:56:00,